Weather History for Annette Island, AK

Change the Weather History Date:

Wednesday, January 22, 2014

  Actual Average Record
Temperature  
Mean Temperature 44 °F 37 °F  
Max Temperature 46 °F 42 °F 53 °F (1981)
Min Temperature 42 °F 32 °F 5 °F (1969)
Degree Days  
Heating Degree Days 21 28  
Month to date heating degree days 564 616  
Since 1 July heating degree days 3277 3527  
Cooling Degree Days 0    
Month to date cooling degree days 0  
Year to date cooling degree days 0  
Moisture  
Dew Point 43 °F    
Average Humidity 0    
Maximum Humidity 0    
Minimum Humidity 0    
Precipitation  
Precipitation 0.11 in 0.35 in 2.66 in (1968)
Month to date precipitation 7.66 7.77  
Year to date precipitation 7.66 7.77  
Snow  
Snow 0.00 in 0.20 in 10.70 in (1993)
Month to date snowfall 1.0 5.5  
Since 1 July snowfall 10.1 17.2  
Snow Depth 0.00 in    
Sea Level Pressure  
Sea Level Pressure 30.35 in    
Wind  
Wind Speed 14 mph (SE)    
Max Wind Speed 21 mph    
Max Gust Speed 27 mph    
Visibility 9 miles    
Events Rain    
T = Trace of Precipitation, MM = Missing Value Source: NWS Daily Summary

Daily Weather History Graph

Daily Weather History Graph

Search for Another Location

Airport:

Trip Planner

Search our weather history database for the weather conditions in past years. The results will help you decide how hot, cold, wet, or windy it might be!

Date:

Astronomy

Jan. 22, 2014 Rise Set
Actual Time 7:53 AM AKST 4:03 PM AKST
Civil Twilight 7:11 AM AKST 4:45 PM AKST
Nautical Twilight 6:26 AM AKST 5:30 PM AKST
Astronomical Twilight 5:43 AM AKST 6:13 PM AKST
Moon 11:58 PM AKST (1/22) 9:48 AM AKST (1/22)
Length of Visible Light 9h 33m
Length of Day
8h 10m
Waning Gibbous, 64% of the Moon is Illuminated
Jan 22
Waning Gibbous
Jan 23
Last Quarter
Jan 30
New
Feb 6
First Quarter
Feb 14
Full

Hourly Weather History & Observations

Time (AKST) Temp. Windchill Dew Point Humidity Pressure Visibility Wind Dir Wind Speed Gust Speed Precip Events Conditions
12:53 AM 45.0 °F 37.4 °F 39.9 °F 82% 30.17 in 10.0 mi SE 18.4 mph 26.5 mph N/A   Overcast
1:45 AM 44.1 °F 36.8 °F 42.1 °F 93% 30.19 in 10.0 mi SE 16.1 mph - 0.00 in   Overcast
1:53 AM 43.0 °F 36.4 °F 42.1 °F 97% 30.19 in 8.0 mi ESE 12.7 mph 23.0 mph 0.00 in Rain Light Rain
2:33 AM 42.1 °F 36.6 °F 42.1 °F 100% 30.20 in 5.0 mi ESE 9.2 mph - 0.01 in Rain Light Rain
2:53 AM 42.1 °F 35.7 °F 42.1 °F 100% 30.21 in 4.0 mi ESE 11.5 mph 19.6 mph 0.01 in Rain Light Rain
3:53 AM 42.1 °F 35.7 °F 42.1 °F 100% 30.22 in 4.0 mi ESE 11.5 mph - 0.03 in Rain Light Rain
4:53 AM 42.1 °F 35.7 °F 42.1 °F 100% 30.25 in 4.0 mi ESE 11.5 mph - 0.02 in Rain Light Rain
5:53 AM 42.1 °F 35.2 °F 42.1 °F 100% 30.25 in 10.0 mi ESE 12.7 mph - 0.01 in   Overcast
6:53 AM 42.1 °F 35.7 °F 42.1 °F 100% 30.28 in 10.0 mi ESE 11.5 mph 19.6 mph N/A   Overcast
7:53 AM 42.1 °F 35.2 °F 42.1 °F 100% 30.31 in 10.0 mi ESE 12.7 mph - N/A   Overcast
8:14 AM 42.1 °F 35.2 °F 42.1 °F 100% 30.32 in 10.0 mi ESE 12.7 mph - N/A   Overcast
8:53 AM 43.0 °F 36.0 °F 43.0 °F 100% 30.34 in 10.0 mi ESE 13.8 mph - N/A   Overcast
9:02 AM 43.0 °F 35.7 °F 43.0 °F 100% 30.34 in 10.0 mi ESE 15.0 mph - N/A   Overcast
9:31 AM 43.0 °F 36.4 °F 43.0 °F 100% 30.35 in 10.0 mi SE 12.7 mph 20.7 mph N/A   Overcast
9:53 AM 44.1 °F 37.4 °F 43.0 °F 96% 30.36 in 10.0 mi SE 13.8 mph - N/A   Overcast
10:15 AM 43.0 °F 35.4 °F 42.1 °F 97% 30.36 in 10.0 mi ESE 16.1 mph - 0.00 in Rain Light Rain
10:53 AM 43.0 °F 35.7 °F 43.0 °F 100% 30.37 in 5.0 mi SE 15.0 mph 21.9 mph 0.01 in Rain Light Rain
11:53 AM 43.0 °F 36.8 °F 43.0 °F 100% 30.37 in 9.0 mi ESE 11.5 mph 20.7 mph 0.01 in   Overcast
12:23 PM 43.0 °F 36.0 °F 43.0 °F 100% 30.36 in 10.0 mi ESE 13.8 mph 25.3 mph 0.00 in   Overcast
12:53 PM 43.0 °F 35.7 °F 42.1 °F 97% 30.36 in 10.0 mi ESE 15.0 mph 24.2 mph 0.00 in   Overcast
1:53 PM 43.0 °F 34.8 °F 42.1 °F 97% 30.38 in 8.0 mi ESE 18.4 mph 23.0 mph 0.00 in Rain Light Rain
2:19 PM 42.1 °F 34.2 °F 42.1 °F 100% 30.37 in 4.0 mi SE 16.1 mph 21.9 mph 0.01 in Rain Light Rain
2:53 PM 42.1 °F 33.9 °F 42.1 °F 100% 30.38 in 7.0 mi ESE 17.3 mph 24.2 mph 0.02 in Rain Light Rain
3:53 PM 42.1 °F 34.2 °F 42.1 °F 100% 30.38 in 4.0 mi ESE 16.1 mph 24.2 mph 0.02 in Rain Light Rain
4:53 PM 42.1 °F 34.5 °F 42.1 °F 100% 30.40 in 10.0 mi SE 15.0 mph - 0.02 in Rain Light Rain
5:30 PM 42.1 °F 34.5 °F 42.1 °F 100% 30.39 in 10.0 mi SE 15.0 mph 23.0 mph 0.01 in Rain Light Rain
5:53 PM 42.1 °F 34.9 °F 42.1 °F 100% 30.41 in 10.0 mi ESE 13.8 mph - 0.01 in   Overcast
6:53 PM 43.0 °F 36.8 °F 43.0 °F 100% 30.42 in 10.0 mi SE 11.5 mph 19.6 mph 0.00 in   Overcast
7:40 PM 43.0 °F 36.4 °F 43.0 °F 100% 30.44 in 10.0 mi SE 12.7 mph - 0.00 in Rain Light Rain
7:53 PM 43.0 °F 36.8 °F 43.0 °F 100% 30.45 in 10.0 mi SE 11.5 mph - 0.01 in Rain Light Rain
8:24 PM 43.0 °F 37.2 °F 43.0 °F 100% 30.45 in 10.0 mi SE 10.4 mph - 0.02 in Rain Light Rain
8:45 PM 43.0 °F 37.2 °F 43.0 °F 100% 30.45 in 10.0 mi SE 10.4 mph - 0.03 in Rain Light Rain
8:53 PM 43.0 °F 36.8 °F 43.0 °F 100% 30.46 in 9.0 mi ESE 11.5 mph - 0.03 in Rain Light Rain
9:33 PM 43.0 °F 36.8 °F 43.0 °F 100% 30.46 in 10.0 mi SE 11.5 mph - 0.02 in Rain Light Rain
9:53 PM 44.1 °F 38.6 °F 44.1 °F 100% 30.47 in 10.0 mi SE 10.4 mph - 0.02 in Rain Light Rain
10:53 PM 44.1 °F 39.5 °F 44.1 °F 100% 30.48 in 10.0 mi SE 8.1 mph - 0.01 in Rain Light Rain
11:53 PM 44.1 °F 38.6 °F 44.1 °F 100% 30.47 in 10.0 mi SE 10.4 mph - 0.01 in Rain Light Rain